Theta_e
263 263 263 263 263 263 263 263 262 262 262 262 262 262 262 262 262 262 263 263 263 263 263 263 263 263 264 264 264 264 265 265 265 265 266 266 267 268 268 269 271 272 272 273 275 276 276 277 278 278 278 279 279 279 279 279 279 279 279 279 279 280 279
263 262 262 262 262 262 262 262 262 262 262 262 262 262 262 262 262 262 262 262 262 262 263 263 263 263 263 263 263 263 264 264 264 264 265 265 266 266 267 268 269 270 271 272 273 274 275 276 277 278 278 278 279 279 279 279 279 279 279 279 279 279 279
262 262 262 262 262 261 261 261 261 261 261 261 261 261 261 261 261 261 261 261 261 262 262 262 262 262 262 262 262 262 263 263 263 263 264 264 265 266 266 267 268 268 269 270 271 272 273 274 275 277 277 278 278 278 278 278 278 278 278 279 279 279 279
261 261 261 261 261 261 261 261 261 261 260 260 260 260 260 260 260 260 260 261 261 261 261 261 261 261 261 261 262 262 262 262 262 263 263 264 264 265 265 266 266 267 267 268 269 270 271 273 274 275 276 277 277 278 278 278 278 278 278 278 278 279 279
261 261 260 260 260 260 260 260 260 260 260 260 260 260 260 260 260 260 260 260 260 260 260 260 260 260 261 261 261 261 262 262 262 262 263 263 264 264 265 265 265 266 266 267 268 268 269 270 272 273 275 276 277 277 278 278 278 278 278 278 278 278 278
260 260 260 260 260 259 259 259 259 259 259 259 259 259 259 259 259 259 259 259 259 260 260 260 260 260 260 261 261 261 262 262 262 262 262 263 263 264 264 264 265 265 265 266 267 267 268 269 270 272 273 275 276 277 278 278 278 278 278 278 278 278 278
259 259 259 259 259 259 259 259 258 258 258 258 258 258 258 258 259 259 259 259 259 259 259 260 260 260 260 261 261 261 262 262 262 262 262 263 263 263 264 264 264 265 265 265 266 267 267 268 269 270 272 274 276 276 277 278 278 278 278 278 278 278 278
259 258 258 258 258 258 258 258 258 258 258 257 257 257 257 257 258 258 258 259 259 260 260 260 260 261 261 261 261 262 262 262 262 262 263 263 263 263 264 264 264 265 265 265 266 266 267 268 269 270 271 273 275 276 277 277 278 278 277 277 278 277 277
258 258 257 257 257 257 257 257 257 257 257 257 257 257 257 258 258 259 259 260 260 260 261 261 261 262 262 262 262 262 262 263 263 263 263 263 263 264 264 264 265 265 265 266 266 266 267 268 269 270 271 272 274 276 276 277 277 277 277 277 277 277 277
257 257 257 256 256 256 256 256 256 256 256 257 258 258 259 260 260 261 261 261 261 262 262 262 262 263 263 263 263 263 263 263 264 264 264 264 264 264 264 264 265 265 266 266 266 267 267 268 269 270 270 271 273 275 276 277 277 277 277 277 277 277 277
256 256 256 256 256 256 256 255 255 256 257 258 259 260 260 261 261 262 262 263 263 263 263 263 263 263 263 263 263 264 264 264 264 265 265 265 265 265 265 265 265 265 266 266 266 267 267 268 269 269 270 271 272 273 275 276 277 277 277 277 277 277 277
256 256 255 255 255 255 255 255 255 256 257 258 259 260 261 261 262 262 263 263 263 263 263 264 264 264 264 264 264 264 264 264 265 265 265 266 266 266 266 266 266 266 267 267 267 267 267 268 268 269 270 271 272 273 275 276 276 277 277 277 277 277 277
255 255 255 255 255 255 254 254 255 256 258 258 260 261 261 261 262 262 263 263 263 263 264 264 264 264 264 264 264 265 265 265 265 265 265 265 266 266 266 267 267 267 268 268 268 268 268 268 268 268 269 269 270 272 274 275 276 276 277 277 277 277 277
255 255 255 255 254 254 254 254 254 256 258 259 260 261 262 262 262 262 262 263 263 263 264 264 264 265 265 265 265 265 265 265 265 265 265 265 265 265 266 266 267 267 268 268 268 268 268 268 268 268 268 269 269 270 272 274 275 276 276 276 277 277 277
255 255 255 254 254 254 254 254 255 257 258 259 260 261 262 261 261 262 262 263 263 263 264 264 264 265 265 265 265 266 266 266 266 266 265 265 265 265 265 266 266 266 266 267 267 267 268 268 268 268 268 269 269 269 270 271 273 275 276 276 276 276 276
255 254 254 254 254 254 254 254 255 257 258 259 260 261 261 260 261 262 262 263 263 264 264 264 265 265 265 265 266 266 267 267 267 267 266 266 266 266 266 266 266 266 266 266 267 267 267 267 268 268 268 269 269 270 270 270 271 272 274 276 276 276 276
254 254 254 254 254 254 254 254 255 256 258 259 260 260 260 260 261 262 263 263 264 264 265 265 265 266 266 266 266 267 267 268 269 269 268 267 266 266 266 266 266 266 267 267 267 268 268 268 268 268 269 269 270 270 270 271 271 272 273 275 275 275 276
254 254 254 254 254 254 254 254 255 256 258 259 260 260 260 261 262 262 263 264 264 265 265 266 266 267 267 267 267 268 268 269 269 269 269 268 267 267 266 267 266 266 267 267 267 268 268 269 269 269 270 270 270 271 271 271 272 272 273 275 275 275 276
254 254 254 254 254 254 254 255 255 256 258 259 260 260 261 261 262 263 263 264 265 265 266 267 267 268 268 269 269 269 270 270 270 270 270 269 269 268 268 267 267 267 267 267 267 268 268 268 269 269 270 270 270 271 271 272 272 273 273 274 275 275 275
253 253 253 253 254 254 255 255 256 256 257 259 260 260 261 262 262 263 264 265 265 266 267 267 268 268 269 270 270 270 271 271 271 271 271 270 269 269 269 268 268 268 268 268 268 268 268 268 269 269 269 270 270 271 271 271 272 273 273 274 275 275 275
253 253 253 254 254 255 255 256 256 256 257 259 259 260 261 262 262 263 264 265 266 267 267 267 267 268 269 270 270 270 270 271 271 271 271 270 269 269 269 269 269 269 269 269 269 269 269 269 269 270 270 270 271 271 271 272 272 273 273 274 275 275 275
253 253 254 254 255 255 256 256 257 257 258 259 260 260 261 262 262 264 265 265 266 266 266 266 267 268 269 269 270 270 271 271 271 271 272 271 271 270 270 270 270 270 270 270 270 270 270 270 270 270 271 271 272 272 272 273 273 273 274 274 275 275 275
253 254 254 255 256 256 256 257 257 257 258 258 259 260 261 261 262 264 265 265 265 265 265 265 266 266 268 269 270 271 271 271 272 272 272 272 272 272 272 272 272 271 271 271 271 271 271 271 271 271 272 272 272 273 273 273 274 274 274 274 275 275 275
254 254 255 256 256 256 257 257 257 257 258 258 258 260 260 261 262 264 264 264 264 264 264 264 265 266 267 269 270 270 271 271 271 272 272 272 272 272 272 273 273 273 272 272 272 272 272 272 272 272 272 273 273 273 274 274 274 275 274 274 274 275 275
254 255 255 256 256 256 257 257 257 257 257 257 258 259 260 261 262 263 263 264 264 263 263 263 264 265 266 267 268 269 270 271 271 272 272 272 272 273 273 273 273 273 273 273 273 273 273 273 273 273 273 273 273 273 274 274 274 275 275 275 274 274 274
255 255 256 256 256 257 257 257 257 257 257 257 258 258 259 261 262 262 263 263 263 262 262 262 263 264 264 264 266 267 269 270 270 271 271 272 272 272 273 273 274 274 274 274 274 273 273 273 273 273 273 273 273 274 274 274 275 275 275 274 273 273 274
255 255 256 256 257 257 257 257 257 257 257 257 258 258 259 261 262 262 263 263 261 261 261 261 262 262 262 262 263 264 266 267 268 269 270 271 271 272 272 273 273 274 274 274 274 274 274 274 273 273 273 273 273 273 274 274 275 275 274 273 273 273 274
255 255 255 256 257 257 256 256 256 256 257 257 257 258 260 261 261 262 262 262 260 260 260 260 261 261 261 261 262 262 263 264 265 266 267 268 270 271 272 272 272 273 273 273 274 274 274 273 273 273 273 273 273 273 274 274 274 274 274 274 274 274 274
255 255 256 256 256 256 255 256 256 256 256 257 258 259 260 261 260 261 262 261 259 259 259 259 260 260 260 260 261 261 261 262 262 263 264 265 267 269 271 273 273 273 273 273 274 273 273 273 273 272 272 273 273 273 273 274 274 274 274 274 274 274 274
255 256 256 256 255 255 255 256 256 256 256 257 259 259 260 260 260 261 261 260 258 258 258 259 259 259 259 259 260 260 260 260 260 261 262 263 265 267 270 272 273 273 273 273 273 273 273 272 272 272 272 272 272 272 273 273 274 274 274 274 274 274 274
255 256 255 255 255 255 255 255 255 255 256 257 258 259 259 259 259 260 260 258 257 257 257 258 258 259 259 259 259 259 259 259 259 260 260 261 263 265 268 271 273 272 272 273 273 273 273 272 272 272 272 272 272 272 272 273 274 274 275 274 274 275 275
255 255 255 255 255 255 254 254 254 254 255 256 258 259 259 258 258 258 258 257 256 256 257 257 257 258 258 258 258 258 258 258 258 258 259 260 261 263 266 269 271 272 272 272 272 272 272 272 272 272 272 272 272 272 272 273 273 274 274 275 274 275 275
253 253 253 253 253 254 254 253 253 254 255 256 257 259 258 257 256 257 257 256 256 256 256 256 256 257 257 257 257 257 257 257 257 257 258 259 260 262 263 265 268 271 272 272 272 272 272 272 272 272 272 272 272 272 272 272 273 273 274 275 275 275 275
251 251 251 251 251 252 252 252 252 253 254 255 257 258 257 255 255 255 255 255 255 255 255 255 255 256 256 256 256 256 256 256 256 257 257 258 258 260 262 264 267 270 272 272 272 273 272 272 272 272 272 272 272 272 272 272 272 273 274 274 275 275 275
251 251 250 250 250 250 250 250 251 252 253 255 257 257 255 253 253 254 254 254 254 254 255 255 255 255 255 255 256 256 256 256 256 256 256 257 257 259 260 262 265 269 271 272 272 272 272 272 272 272 272 272 272 272 272 272 272 272 273 274 275 275 275
250 250 250 250 250 250 249 250 250 251 253 255 256 255 254 252 252 253 253 253 253 254 254 254 254 254 255 255 255 255 255 255 255 255 255 256 256 257 259 260 262 264 267 270 272 273 272 272 272 272 272 272 272 272 272 272 272 272 273 274 275 275 275
Wind_Speed
23 24 24 25 25 25 25 24 24 24 23 24 24 23 22 22 22 22 22 22 21 21 20 21 22 22 21 21 21 21 19 19 18 18 19 18 18 20 20 21 22 17 17 24 28 30 30 28 27 29 29 29 30 26 24 25 28 28 26 23 22 22 23
25 25 25 26 26 26 26 26 26 26 25 26 27 25 23 23 23 23 23 23 23 22 21 21 23 24 23 21 21 21 20 20 19 19 20 20 19 20 20 19 21 20 17 19 24 29 32 30 28 30 29 28 30 30 27 27 28 29 28 26 24 22 22
26 26 26 27 27 26 26 27 26 26 26 26 26 25 25 24 24 25 25 25 25 24 23 23 25 25 23 21 21 21 20 20 20 19 20 21 20 21 22 20 20 22 20 19 21 25 31 31 28 29 30 28 30 31 30 31 31 30 30 30 27 24 24
26 27 27 27 27 26 26 27 27 26 25 25 24 25 26 25 25 25 26 25 25 24 23 24 24 23 21 20 22 22 21 20 20 20 20 22 21 21 23 22 22 23 24 22 21 23 28 31 29 29 30 29 29 31 32 33 33 32 31 32 30 26 25
26 26 26 26 26 26 26 26 26 26 25 24 25 25 26 26 25 25 25 25 24 23 23 22 24 24 22 22 23 23 21 20 21 21 21 22 22 21 21 22 22 23 24 24 23 22 25 29 30 30 32 30 29 30 31 32 34 33 32 32 32 29 27
25 25 25 25 25 25 25 25 25 25 24 24 25 25 26 26 25 25 25 24 24 24 23 23 24 24 23 24 24 23 22 22 22 22 23 23 23 23 23 23 23 24 24 25 26 24 24 26 29 31 32 31 30 30 30 30 31 32 30 31 33 32 28
24 24 23 24 24 24 24 24 24 24 24 24 24 25 25 24 23 23 24 24 24 24 25 26 26 26 27 28 28 29 30 29 26 24 24 24 23 23 24 25 25 25 25 26 26 24 23 24 26 29 32 33 31 31 32 31 30 29 28 29 30 30 28
22 22 21 22 23 23 22 22 22 22 22 23 24 25 25 26 26 27 30 32 33 32 32 33 33 33 36 37 37 39 40 39 35 28 25 25 24 23 24 26 26 25 25 26 25 24 23 23 24 26 30 33 31 29 31 32 31 30 29 28 28 28 27
20 21 22 23 23 22 22 22 23 23 23 25 28 29 30 33 35 37 39 41 42 42 41 41 41 41 43 43 43 44 43 42 41 34 29 28 26 26 27 28 27 26 25 25 24 24 23 22 22 23 25 29 30 29 30 32 32 32 30 27 29 29 26
21 22 23 25 25 25 25 25 25 27 29 32 35 34 34 36 36 36 36 36 37 38 37 37 38 38 39 40 41 42 41 41 41 40 38 35 31 30 30 29 28 28 28 26 24 24 23 19 19 24 25 27 31 31 31 31 31 31 29 25 25 28 27
24 25 24 25 26 27 27 28 28 31 35 38 39 38 37 36 35 34 33 32 31 31 31 31 31 31 32 34 35 37 40 41 41 41 42 41 40 37 35 32 29 28 28 28 26 26 25 21 21 25 25 26 30 32 31 31 31 31 29 23 17 18 22
26 26 25 25 27 28 28 29 31 33 36 39 39 39 38 36 32 31 31 30 29 30 30 30 30 29 29 31 34 36 40 43 42 42 42 43 45 45 45 43 40 35 32 30 28 28 29 28 26 27 26 26 28 29 29 31 32 30 29 26 19 17 20
26 27 26 26 28 29 29 31 34 35 36 39 39 38 39 36 32 30 30 31 30 31 31 31 32 30 29 32 33 35 39 43 44 44 44 44 44 45 48 50 51 49 44 40 37 34 34 34 31 30 30 28 27 27 27 29 31 31 30 27 24 25 25
25 26 27 27 29 30 31 34 37 36 36 39 39 38 38 36 32 30 30 31 31 31 32 33 34 33 32 33 33 34 38 43 47 49 49 46 44 44 43 44 48 50 49 47 44 41 41 40 36 35 35 31 29 30 31 30 28 28 30 28 27 28 28
24 25 26 28 29 30 32 36 37 35 37 39 38 37 37 34 31 30 30 31 31 32 33 35 36 37 37 38 38 38 40 43 46 48 47 46 45 43 40 39 40 43 44 44 43 43 45 43 40 40 40 35 32 33 36 38 34 30 30 30 28 28 29
23 24 26 27 27 28 33 38 37 35 38 40 39 39 37 32 30 29 29 31 32 33 34 35 37 38 39 42 46 48 47 45 44 42 40 41 42 40 37 36 38 41 44 46 46 46 48 45 42 43 44 42 40 36 35 38 38 36 33 29 24 23 26
24 24 25 26 27 28 32 38 39 37 39 41 40 40 37 31 29 29 29 31 33 33 34 35 37 39 41 44 47 48 47 47 47 43 38 38 41 39 34 33 37 40 43 47 50 49 50 49 46 46 48 49 49 45 39 35 32 32 31 25 17 15 20
23 23 23 25 29 30 32 36 40 39 40 41 40 39 36 30 27 28 29 31 33 33 34 37 39 42 45 46 46 46 47 48 49 47 38 33 36 37 33 33 37 39 39 43 47 46 46 47 46 46 49 51 50 50 48 41 34 33 32 26 18 14 16
21 23 26 29 32 33 32 35 40 40 39 40 39 38 35 29 26 28 30 31 32 34 34 35 37 39 42 44 45 46 46 46 46 44 38 33 28 25 29 35 36 36 36 36 38 39 40 42 43 42 44 46 46 48 49 46 42 39 34 29 24 21 16
25 27 32 33 32 33 33 33 37 39 39 39 39 38 36 31 27 28 30 31 32 33 33 33 34 36 38 39 38 37 37 37 37 35 33 32 25 21 30 38 35 33 34 33 32 34 35 36 38 37 36 37 39 42 46 47 46 44 40 34 27 24 20
30 29 31 29 26 28 30 28 30 34 37 38 38 39 38 34 30 30 31 31 31 30 30 31 33 34 34 34 32 32 32 32 32 28 25 25 28 31 37 38 31 30 33 32 31 32 32 32 33 33 31 31 32 35 39 42 42 42 42 39 31 26 23
32 28 26 24 22 23 24 23 24 28 32 35 37 38 38 37 36 35 32 29 28 29 30 31 31 32 34 36 35 33 31 29 28 25 21 21 27 33 38 36 32 30 30 29 30 30 29 30 30 30 30 29 29 30 33 37 37 37 40 43 40 33 26
26 23 23 23 22 22 23 23 23 26 30 33 35 37 39 40 40 37 33 29 28 28 29 31 31 33 37 39 36 31 27 25 23 22 22 24 27 29 33 33 32 30 29 28 28 28 27 28 28 28 26 26 26 27 30 33 34 34 39 43 41 36 33
20 21 22 23 24 24 24 24 25 26 28 32 34 35 39 42 39 36 34 31 27 26 28 31 33 34 37 36 31 27 24 21 21 20 22 24 25 25 27 29 29 30 30 29 27 25 25 25 25 24 23 23 24 24 25 28 29 31 36 40 38 36 37
20 21 22 23 25 26 26 25 25 25 27 30 31 32 38 40 36 34 33 29 25 26 29 31 32 33 33 32 29 26 22 18 18 21 21 21 22 22 22 23 25 26 26 25 25 24 24 24 23 22 21 22 21 20 20 22 23 24 29 34 35 35 35
21 21 22 23 26 27 27 26 25 25 27 28 28 31 37 37 32 32 31 25 23 27 29 29 30 29 29 28 26 23 19 17 17 19 19 18 20 21 21 20 21 23 23 24 25 24 23 23 21 20 20 20 19 18 18 19 18 19 23 26 26 23 23
21 22 23 25 27 26 26 25 25 25 26 28 30 34 36 32 29 30 27 21 22 27 28 26 26 26 25 26 25 22 20 19 19 18 17 17 19 19 17 17 17 18 19 20 21 20 18 18 17 15 16 16 16 17 18 17 16 16 18 19 18 16 15
22 23 25 26 26 25 24 24 24 24 27 31 35 38 35 29 28 29 24 22 26 29 26 23 23 22 23 24 24 23 22 21 20 20 18 18 20 20 16 12 10 8 10 12 13 13 11 10 10 11 12 14 15 15 16 16 16 15 15 16 16 15 14
26 27 26 24 23 22 23 23 23 26 31 35 38 39 34 29 29 28 24 26 30 27 22 20 20 20 21 23 22 21 21 21 21 22 21 20 21 21 17 11 6 3 6 8 9 10 10 9 9 9 10 13 15 15 14 16 17 15 15 16 16 14 13
29 28 25 22 21 21 22 24 26 30 35 36 36 36 33 31 31 28 26 28 28 22 18 18 18 18 19 20 20 20 20 20 21 21 21 21 21 21 18 13 8 3 1 5 8 9 9 9 9 9 10 11 14 14 14 15 16 16 14 15 15 13 13
27 26 24 23 23 23 23 25 27 31 34 35 34 34 33 32 31 27 25 27 24 19 17 17 17 17 18 18 18 19 20 20 20 20 20 21 21 20 18 14 9 4 1 2 5 7 8 9 9 10 10 11 11 12 13 14 15 16 15 14 14 13 12
25 25 25 25 25 26 26 26 28 30 32 33 33 32 31 31 29 25 24 23 20 16 16 17 16 16 18 18 18 19 19 20 20 20 20 20 19 19 18 16 12 6 2 3 4 6 7 8 9 9 10 11 11 12 13 14 15 16 16 15 14 13 13
22 22 25 27 27 27 28 29 30 31 32 32 31 30 30 29 26 22 21 20 17 15 17 17 17 17 18 18 19 19 19 20 20 20 20 19 19 19 19 19 18 12 6 5 5 6 7 7 8 9 10 10 12 12 13 13 14 15 16 15 14 13 14
23 21 24 28 29 27 28 30 30 30 30 30 28 27 28 26 22 19 18 17 16 16 17 17 17 18 18 19 19 20 19 19 20 20 21 21 20 20 20 20 19 14 8 6 6 6 8 7 8 9 10 10 11 12 13 13 14 15 15 15 14 14 15
24 22 25 28 27 26 28 29 28 29 29 27 24 24 25 23 20 19 20 19 18 17 18 17 17 18 19 20 20 20 20 20 20 20 21 22 22 22 21 20 18 14 10 8 8 7 7 8 8 9 10 10 11 12 13 13 14 15 16 16 16 15 15
20 21 24 24 21 22 26 27 27 28 28 24 22 22 20 18 18 19 19 18 18 18 18 18 17 18 19 20 20 20 21 20 19 19 20 22 23 22 21 21 20 19 15 10 10 10 9 8 9 9 10 11 11 13 13 13 14 15 16 17 17 16 15
Wind_Direction
306 306 306 305 303 302 300 299 298 297 296 294 291 287 285 284 282 280 279 279 278 276 273 272 272 273 273 272 271 270 271 270 271 272 270 269 269 268 266 264 264 266 270 269 266 269 271 271 270 269 266 265 264 259 254 252 253 254 250 245 249 255 257
306 305 304 303 301 299 299 298 297 296 295 293 290 286 284 283 282 280 279 278 277 276 274 273 274 275 274 272 268 266 267 267 268 269 268 267 266 267 266 264 265 268 272 272 267 265 269 269 267 268 266 263 262 261 258 254 252 252 252 249 248 251 253
306 305 303 301 298 297 297 296 295 294 291 288 285 283 281 281 280 280 279 277 276 276 274 274 274 274 272 270 266 264 263 264 265 264 264 265 262 263 265 264 265 268 271 277 273 267 267 267 264 264 266 264 262 262 260 257 253 251 252 253 249 245 250
305 304 302 300 298 296 295 295 294 292 288 285 282 281 280 279 277 276 275 274 273 273 272 272 271 270 269 267 265 265 263 261 260 259 261 263 261 261 263 264 263 264 267 272 275 267 265 268 266 263 264 264 263 262 259 255 253 252 251 252 250 244 245
303 302 299 297 296 295 293 293 292 289 286 284 282 281 279 277 275 273 272 270 270 270 269 267 267 267 267 265 264 263 262 259 257 257 258 260 260 261 263 264 263 263 265 266 270 269 266 267 267 264 263 262 261 261 259 254 251 250 250 250 248 245 245
300 299 296 294 293 292 291 291 289 287 284 283 282 280 278 276 274 272 271 270 269 269 266 264 264 264 262 259 259 259 260 259 256 256 256 255 257 258 261 264 264 264 264 263 264 268 267 265 263 261 261 260 257 256 257 256 252 247 246 247 247 245 243
297 296 294 293 292 291 290 289 287 284 283 282 280 278 276 275 272 272 271 269 267 265 263 262 261 260 259 258 257 259 262 262 257 254 253 251 252 254 255 259 262 262 262 262 263 264 262 262 260 258 257 257 256 255 253 252 252 246 241 243 247 246 243
294 294 294 292 291 290 289 288 286 283 281 280 278 275 274 273 273 273 273 273 273 270 267 266 264 264 265 264 263 264 266 265 260 254 251 250 248 247 249 253 258 260 259 259 262 262 261 262 260 255 252 252 252 252 248 246 247 246 243 244 247 245 243
293 293 292 291 291 289 288 286 284 282 280 279 278 276 275 276 276 276 275 276 277 276 273 272 270 268 269 268 268 268 265 263 260 253 247 248 247 245 246 248 251 255 257 258 260 261 261 262 260 254 248 245 244 244 246 245 245 246 244 243 247 246 240
293 291 290 292 292 290 289 286 283 283 283 282 281 280 280 281 280 279 277 275 275 275 273 272 269 268 268 267 265 263 258 255 255 252 249 249 247 244 243 244 244 247 252 254 257 260 260 259 258 254 248 245 243 242 246 246 244 245 243 238 244 248 242
293 292 290 291 290 290 289 286 285 287 288 288 287 285 284 283 282 281 278 275 275 274 272 271 268 266 265 262 259 257 256 255 253 252 252 251 249 245 242 238 237 238 242 246 250 255 255 253 255 256 252 249 245 243 245 245 242 243 243 237 235 243 243
292 292 291 290 288 289 290 289 290 291 291 292 294 293 290 287 284 283 280 278 276 274 273 272 270 266 263 260 257 256 259 262 259 256 254 252 250 249 247 244 240 238 239 242 246 250 251 250 253 256 253 250 249 247 246 245 242 241 240 237 233 239 243
293 293 293 291 290 290 289 294 299 298 295 296 297 297 297 295 291 288 284 281 277 274 272 271 269 268 265 263 260 257 259 263 264 261 258 254 251 250 250 250 249 249 248 246 246 248 249 247 248 251 251 248 249 253 255 251 244 239 237 235 236 239 241
294 294 293 292 294 292 291 298 303 301 299 300 300 302 304 303 298 292 286 281 276 272 270 268 266 266 265 263 261 258 258 262 265 264 262 257 252 249 249 250 251 252 253 252 250 250 250 248 246 248 249 247 246 250 256 259 254 243 235 232 235 239 237
294 294 293 292 294 293 294 302 305 302 302 305 305 307 309 306 300 294 288 283 277 272 269 266 263 263 263 262 262 261 260 260 262 262 260 255 251 249 247 247 246 246 248 249 249 250 251 250 247 247 249 248 246 245 249 257 264 263 250 238 237 240 236
294 294 293 293 293 291 296 305 307 305 307 310 309 310 310 305 299 293 286 283 280 275 272 268 263 262 262 264 267 268 266 262 259 256 250 247 247 246 244 245 244 243 243 244 245 246 249 249 247 246 248 248 246 245 246 252 261 266 259 246 239 239 235
296 295 293 293 294 293 295 304 308 308 310 312 311 311 309 304 299 294 287 285 283 279 276 272 267 263 262 263 267 269 267 265 261 253 244 238 239 240 241 244 246 245 247 249 249 248 247 247 245 243 244 245 244 242 242 244 249 254 253 246 237 234 234
296 296 294 293 296 297 295 300 307 311 313 315 317 314 309 303 299 295 290 288 287 282 279 275 271 268 265 263 264 264 265 266 262 254 245 236 233 232 234 240 244 245 247 252 255 255 252 251 249 245 244 245 244 242 238 236 237 243 247 244 236 232 234
296 296 297 297 300 302 300 301 308 313 315 318 319 317 312 306 300 297 294 292 290 288 285 283 281 278 273 271 270 268 268 270 267 259 249 238 228 223 229 237 240 241 243 246 250 252 254 255 255 253 251 251 250 248 243 238 235 236 241 242 236 231 231
297 297 300 302 303 305 305 304 308 313 316 317 318 318 315 310 305 301 298 296 295 294 295 297 295 292 289 287 285 282 280 280 278 271 258 241 226 223 236 239 238 237 238 238 239 242 246 251 253 253 252 250 250 252 251 246 239 235 236 238 233 228 229
302 298 300 302 299 300 304 302 301 306 310 313 316 317 317 314 309 305 302 301 302 303 303 302 300 299 300 299 295 291 288 285 281 279 268 243 229 232 240 240 236 234 233 232 234 238 240 243 247 247 246 244 243 245 247 247 241 234 232 233 233 232 232
305 300 298 300 296 296 299 298 298 301 304 308 312 315 318 317 313 311 312 312 311 309 306 303 303 302 302 300 297 293 291 288 284 283 277 256 240 239 242 239 235 233 232 229 231 234 237 239 242 242 241 239 237 237 238 239 237 230 227 230 233 233 229
303 298 296 299 301 302 303 302 305 306 304 307 311 314 319 322 319 320 323 321 314 311 309 307 306 304 302 301 301 299 297 295 294 290 281 269 258 251 250 248 241 235 232 230 230 231 234 236 238 239 239 237 237 237 235 233 229 223 222 228 232 229 224
300 300 300 303 305 308 310 310 310 308 305 307 310 314 321 324 324 325 325 320 314 313 312 309 308 309 312 314 314 314 313 308 304 300 290 283 280 274 263 254 247 239 233 229 228 229 232 233 234 234 235 236 236 236 233 228 222 217 219 224 228 227 226
301 302 304 307 308 310 312 314 313 310 307 309 311 315 320 322 323 324 324 321 320 320 316 313 314 317 322 325 324 325 328 325 316 311 308 308 311 305 283 261 247 238 231 225 224 226 228 229 228 226 226 229 231 229 226 226 222 215 213 216 220 223 223
304 305 308 310 311 311 313 314 315 312 310 312 315 317 319 321 323 325 325 325 327 326 322 320 320 323 325 326 326 329 333 332 327 322 321 324 323 315 302 282 258 237 222 215 215 217 219 221 221 221 221 221 221 220 220 220 214 206 203 204 206 209 209
306 308 309 311 312 313 313 314 316 315 313 316 319 318 319 323 328 329 329 333 336 332 327 322 322 325 328 330 333 339 342 340 336 331 327 327 324 317 309 298 276 245 221 207 202 203 209 214 216 219 218 213 212 217 218 212 200 192 190 190 189 191 192
305 306 308 311 314 316 314 313 315 316 314 316 318 319 322 330 334 333 334 340 340 335 328 325 328 334 338 340 343 347 348 344 340 335 331 329 327 322 317 306 285 246 205 189 185 182 182 185 191 199 205 209 213 216 214 207 197 187 180 178 181 186 189
299 301 307 313 317 317 314 312 314 314 313 316 322 326 330 335 338 337 339 343 342 336 330 333 339 344 346 347 348 348 347 344 341 336 332 331 328 325 324 322 307 241 178 164 160 159 157 162 171 182 198 213 220 217 210 205 197 186 175 175 179 183 184
301 305 313 319 319 314 311 310 312 314 316 322 330 335 336 339 342 342 343 345 344 338 335 341 345 345 347 348 349 349 347 344 340 335 331 329 327 323 325 334 343 337 184 160 158 160 163 170 178 181 191 209 219 218 212 207 200 189 175 172 178 183 181
312 317 324 326 323 319 316 314 316 319 321 326 333 338 340 342 344 344 346 348 347 343 343 347 345 343 345 347 348 349 346 341 338 335 330 326 323 321 322 329 341 351 337 177 170 166 166 173 182 186 189 199 210 213 213 210 206 199 188 180 182 183 180
320 324 328 329 327 325 324 322 323 324 326 330 335 340 343 344 343 343 346 350 350 348 348 348 344 342 344 345 345 345 343 341 339 336 331 327 322 319 318 320 326 330 290 221 195 178 173 178 186 191 191 194 199 206 210 211 211 207 199 191 190 189 187
323 326 329 331 331 330 329 329 329 330 332 334 338 341 345 345 342 342 347 351 352 350 348 347 345 342 342 343 342 340 339 339 338 336 334 331 324 317 313 311 312 310 287 244 218 201 194 194 195 197 197 197 198 202 205 208 210 211 207 198 193 193 194
325 326 330 333 333 333 332 332 332 333 334 334 335 341 346 345 341 342 349 354 355 349 345 344 343 342 342 341 339 338 336 334 335 336 337 335 330 324 320 315 311 301 277 253 239 222 212 208 206 205 204 202 201 201 204 206 207 209 209 204 196 193 194
320 323 329 331 330 330 331 332 332 333 333 332 334 342 348 348 346 346 349 352 353 349 343 340 337 338 341 340 339 339 336 332 331 334 337 338 336 332 330 329 326 316 293 262 245 236 226 216 213 212 212 211 208 205 205 205 205 207 210 206 196 190 191
311 316 322 325 325 327 330 332 333 333 333 333 336 343 350 352 349 344 341 342 344 343 339 337 335 335 338 338 338 339 337 333 332 333 334 337 338 336 336 336 336 333 325 294 253 241 236 226 221 220 218 218 216 210 207 207 207 207 209 206 198 192 191